Starlink 30939

operational
NORAD ID: 58393 Int'l Des: 2023-178 Owner: SPXS Country: US Constellation: starlink
LEOCIRCULAR

About Starlink 30939

Description loading...

Live Position

Loading 3D Globe...

Upcoming Passes

Altitude History

Altitude vs Time

uPlot chart will show altitude changes over time

Two-Line Element Set

1 58393U 23178V 26049.11457757 .00006975 00000-0 24747-3 0 9991
2 58393 53.1589 92.0476 0001380 104.3224 255.7930 15.30188785126766
Epoch: Feb 18, 2026 • Age: 15 hours

Current Status

Altitude 485.3 km
Velocity 7.62 km/s
Sub-Earth Point -31.53°S, 119.63°W
Launch Date Nov 20, 2023
Age 2.2 years
Type internet

Technical Details

Classification Payload
Mass 730.00 kg
Dry Mass 700.00 kg
Total Mass 730.00 kg
Length 0.30 m
Diameter 4.10 m
Span 29.00 m
Shape Box + pan
Manufacturer SPXS
Bus Type Starlink V2M
Phase Status In Orbit
Owner/State SPXS/US

Large Constellations

Loading constellations...